Terminal Aerodrome Forecast
Issued by NWS

Home | Current Version | Previous Version | Text Only | Print | Product List | Glossary On
Versions: 1 2 3 4 5 6 7 8 9 10 11 12 13 14 15 16 17 18 19 20 21 22 23 24 25 26 27 28
000
FTUS45 KSLC 291736
TAFOGD
TAF
KOGD 291736Z 2918/3018 17010KT P6SM VCSH SCT070 BKN100
      TEMPO 2918/2921 6SM -RA BKN050 OVC080
     FM292100 30010KT P6SM VCTS BKN080CB OVC100
     FM300300 03006KT P6SM VCSH BKN050=

USA.gov is the U.S. government's official web portal to all federal, state and local government web resources and services.